DMSP 5D-2 F13 DEB, 40576

Orbit data source: Space-Track

DMSP 5D-2 F13 DEB, 40576 is space debris in SSO originally from a launch on Fri, 24 Mar 1995 UTC launched from the Air Force Western Test Range (AFWTR). Debris objects in space refer to the collection of defunct objects orbiting the Earth. Examples of debris include non-operational satellites, rocket bodies, and fragments generated from explosions, collisions, or faulty payload assembly.

Loading next visibility...
Identifier
40576, 1995-015EK
Orbit
SSO
Country
Flag of USUS
Related business
Manufacturer
Unknown
Mission
Spacecraft
Bus & Motor
Unknown
Mass
Unknown
Launch date (UTC)
1995-03-24 (31 years ago)
Launch vehicle
Unknown
Launch site
Air Force Western Test Range (AFWTR)
Object type
Payload
Rocket body
Debris
Shape & HBR
Unknown shape, 0.1 m
Radar Cross Section
Small (<0.1 m²)

Expand to show TLE details & history
Last TLE update: 2 days ago

TLE from 2 days ago
0 DMSP 5D-2 F13 DEB
1 40576U 95015EK  25348.11577115  .00011155  00000-0  26018-2 0  9994
2 40576  98.5677  44.7675 0022583   9.7678 350.3952 14.54771419558532
Epoch: 2025-12-14T02:46Z
TLE epoch observation values (Epoch: 2025-12-14T02:46:42.627Z)
Latitude
-0.00008°
Longitude
-79.94342°
Altitude
697.288 km
Speed
7.516 km/s
True Right ascension
02h 59m 04s
True Declination
0° 00' 00"
Sunlit
Object was in full shadow at epoch
Visualization orbit readout
Latitude
Unknown
Longitude
Unknown
Altitude
Unknown
Speed
Unknown
Apparent Right ascension
Unknown
Apparent Declination
Unknown
Sunlit
N/A
Visualization observer readout
Local Sidereal Time
12:08:03
Azimuth
Unknown
Elevation
Unknown
Doppler factor
Unknown
Orbital elements
Apogee altitude
723.213 km
Perigee altitude
691.212 km
Semi-major axis
7,085.35 km
Eccentricity
0.00226
Inclination
98.5677°
RAAN
44.7675°
Arg. of periapsis
9.7678°
True anomaly
350.3519°
Mean anomaly
350.3952°
Eccentric anomaly
350.37356°
Mean motion
3.63916 °/min
Orbital period
98.92 mins
BSTAR
0.0026018
Loading maneuver chart data...
Computing Atmospheric mass density...

Documentation

Showing up to 5 results
|